Wetterdaten: Sonntag, 07.02.2016
Datum Zeit Auen-Temp. Temp gefhlt Luftfeuchte Luftdruck Regen Wind Richtung Richtung Taupunkt Windben
07.02.2016 00:00 7,6 C 8,4 C 41 % 1012,7 hPa 0,0 mm 4,9 km/h (1 Bft) NW 315 -4,8 C 6,7 km/h (2 Bft)
07.02.2016 00:05 7,5 C 8,0 C 42 % 1012,5 hPa 0,0 mm 3,9 km/h (1 Bft) N-NW 337 -4,6 C 25,9 km/h (4 Bft)
07.02.2016 00:10 8,4 C 8,3 C 42 % 1012,5 hPa 0,0 mm 4,7 km/h (1 Bft) O-SO 112 -3,8 C 25,9 km/h (4 Bft)
07.02.2016 00:15 9,0 C 8,9 C 40 % 1012,5 hPa 0,0 mm 6,2 km/h (2 Bft) W 270 -3,9 C 13,2 km/h (3 Bft)
07.02.2016 00:20 8,5 C 8,5 C 40 % 1012,5 hPa 0,0 mm 8,0 km/h (2 Bft) W-SW 247 -4,3 C 9,3 km/h (2 Bft)
07.02.2016 00:25 8,7 C 8,7 C 40 % 1012,3 hPa 0,0 mm 7,5 km/h (2 Bft) W 270 -4,1 C 15,0 km/h (3 Bft)
07.02.2016 00:30 9,3 C 9,2 C 40 % 1012,3 hPa 0,0 mm 7,8 km/h (2 Bft) SW 225 -3,6 C 18,1 km/h (3 Bft)
07.02.2016 00:35 10,3 C 9,9 C 38 % 1012,3 hPa 0,0 mm 10,6 km/h (2 Bft) O 90 -3,4 C 14,8 km/h (3 Bft)
07.02.2016 00:40 10,1 C 9,9 C 37 % 1012,3 hPa 0,0 mm 10,9 km/h (2 Bft) SO 135 -3,9 C 8,5 km/h (2 Bft)
07.02.2016 00:45 10,1 C 10,0 C 37 % 1012,0 hPa 0,0 mm 7,8 km/h (2 Bft) SW 225 -3,9 C 0,0 km/h (0 Bft)
07.02.2016 00:50 9,9 C 10,0 C 37 % 1012,0 hPa 0,0 mm 6,5 km/h (2 Bft) W-NW 292 -4,1 C 10,4 km/h (2 Bft)
07.02.2016 00:55 9,6 C 9,9 C 37 % 1012,0 hPa 0,0 mm 5,4 km/h (1 Bft) NW 315 -4,4 C 11,1 km/h (2 Bft)
07.02.2016 01:00 9,8 C 9,8 C 37 % 1012,0 hPa 0,0 mm 5,4 km/h (1 Bft) NW 315 -4,2 C 8,0 km/h (2 Bft)
07.02.2016 01:05 9,6 C 9,6 C 37 % 1011,7 hPa 0,0 mm 5,7 km/h (1 Bft) SW 225 -4,4 C 14,0 km/h (3 Bft)
07.02.2016 01:10 8,6 C 8,9 C 38 % 1011,7 hPa 0,0 mm 7,0 km/h (2 Bft) W-SW 247 -4,9 C 2,6 km/h (1 Bft)
07.02.2016 01:15 8,1 C 8,5 C 38 % 1011,7 hPa 0,0 mm 5,4 km/h (1 Bft) SO 135 -5,3 C 4,1 km/h (1 Bft)
07.02.2016 01:20 9,4 C 9,0 C 38 % 1011,7 hPa 0,0 mm 3,4 km/h (1 Bft) W-SW 247 -4,2 C 6,7 km/h (2 Bft)
07.02.2016 01:25 9,1 C 8,9 C 37 % 1011,7 hPa 0,0 mm 5,7 km/h (1 Bft) SW 225 -4,8 C 14,0 km/h (3 Bft)
07.02.2016 01:30 9,7 C 9,5 C 37 % 1011,7 hPa 0,0 mm 6,7 km/h (2 Bft) S-SO 157 -4,3 C 6,5 km/h (2 Bft)
07.02.2016 01:35 9,6 C 9,5 C 37 % 1011,7 hPa 0,0 mm 6,5 km/h (2 Bft) S-SW 202 -4,4 C 4,9 km/h (1 Bft)
07.02.2016 01:40 9,6 C 9,5 C 37 % 1011,7 hPa 0,0 mm 4,9 km/h (1 Bft) W-SW 247 -4,4 C 8,0 km/h (2 Bft)
07.02.2016 01:45 10,0 C 9,8 C 36 % 1011,4 hPa 0,0 mm 6,5 km/h (2 Bft) S-SW 202 -4,4 C 4,7 km/h (1 Bft)
07.02.2016 01:50 9,9 C 9,7 C 36 % 1011,4 hPa 0,0 mm 8,0 km/h (2 Bft) W-SW 247 -4,5 C 8,8 km/h (2 Bft)
07.02.2016 01:55 10,0 C 9,8 C 36 % 1011,4 hPa 0,0 mm 7,0 km/h (2 Bft) SW 225 -4,4 C 7,5 km/h (2 Bft)
07.02.2016 02:00 9,8 C 9,7 C 36 % 1011,4 hPa 0,0 mm 7,5 km/h (2 Bft) W-SW 247 -4,5 C 13,5 km/h (3 Bft)
07.02.2016 02:05 9,9 C 9,8 C 36 % 1011,5 hPa 0,0 mm 8,0 km/h (2 Bft) SW 225 -4,5 C 4,9 km/h (1 Bft)
07.02.2016 02:10 10,0 C 9,9 C 36 % 1011,5 hPa 0,0 mm 7,3 km/h (2 Bft) SW 225 -4,4 C 11,9 km/h (2 Bft)
07.02.2016 02:15 10,9 C 10,4 C 34 % 1011,5 hPa 0,0 mm 10,1 km/h (2 Bft) W-SW 247 -4,3 C 11,9 km/h (2 Bft)
07.02.2016 02:20 10,4 C 10,1 C 35 % 1011,5 hPa 0,0 mm 11,9 km/h (2 Bft) SW 225 -4,4 C 18,9 km/h (3 Bft)
07.02.2016 02:25 10,5 C 10,1 C 34 % 1011,2 hPa 0,0 mm 11,7 km/h (2 Bft) SW 225 -4,7 C 32,4 km/h (5 Bft)
07.02.2016 02:30 10,6 C 10,3 C 34 % 1011,2 hPa 0,0 mm 13,2 km/h (3 Bft) W-SW 247 -4,6 C 14,8 km/h (3 Bft)
07.02.2016 02:35 10,5 C 10,2 C 34 % 1011,2 hPa 0,0 mm 12,2 km/h (2 Bft) W-NW 292 -4,7 C 12,2 km/h (2 Bft)
07.02.2016 02:40 10,2 C 10,0 C 34 % 1011,2 hPa 0,0 mm 8,0 km/h (2 Bft) W-SW 247 -4,9 C 10,4 km/h (2 Bft)
07.02.2016 02:45 9,4 C 9,7 C 34 % 1011,2 hPa 0,0 mm 5,7 km/h (1 Bft) SW 225 -5,6 C 4,7 km/h (1 Bft)
07.02.2016 02:50 8,8 C 9,0 C 36 % 1011,2 hPa 0,0 mm 4,7 km/h (1 Bft) W-SW 247 -5,4 C 0,0 km/h (0 Bft)
07.02.2016 02:55 8,9 C 8,8 C 36 % 1011,2 hPa 0,0 mm 3,6 km/h (1 Bft) SW 225 -5,3 C 3,9 km/h (1 Bft)
07.02.2016 03:00 8,7 C 8,7 C 37 % 1011,2 hPa 0,0 mm 3,9 km/h (1 Bft) O-SO 112 -5,2 C 3,1 km/h (1 Bft)
07.02.2016 03:05 8,8 C 8,8 C 37 % 1010,9 hPa 0,0 mm 4,9 km/h (1 Bft) W-SW 247 -5,1 C 7,8 km/h (2 Bft)
07.02.2016 03:10 9,6 C 9,3 C 36 % 1010,9 hPa 0,0 mm 6,7 km/h (2 Bft) W-SW 247 -4,7 C 8,0 km/h (2 Bft)
07.02.2016 03:15 9,5 C 9,2 C 36 % 1010,9 hPa 0,0 mm 8,5 km/h (2 Bft) SW 225 -4,8 C 16,3 km/h (3 Bft)
07.02.2016 03:20 9,5 C 9,2 C 36 % 1010,9 hPa 0,0 mm 9,3 km/h (2 Bft) O-SO 112 -4,8 C 6,2 km/h (2 Bft)
07.02.2016 03:25 9,4 C 9,2 C 36 % 1010,8 hPa 0,0 mm 8,3 km/h (2 Bft) W-NW 292 -4,9 C 9,3 km/h (2 Bft)
07.02.2016 03:30 9,4 C 9,3 C 36 % 1010,8 hPa 0,0 mm 7,5 km/h (2 Bft) W-SW 247 -4,9 C 12,9 km/h (3 Bft)
07.02.2016 03:35 9,5 C 9,5 C 36 % 1010,8 hPa 0,0 mm 6,7 km/h (2 Bft) S 180 -4,8 C 4,1 km/h (1 Bft)
07.02.2016 03:40 9,1 C 9,1 C 36 % 1010,8 hPa 0,0 mm 3,6 km/h (1 Bft) S-SO 157 -5,2 C 0,0 km/h (0 Bft)
07.02.2016 03:45 9,1 C 9,0 C 37 % 1010,6 hPa 0,0 mm 2,1 km/h (1 Bft) W-SW 247 -4,8 C 7,8 km/h (2 Bft)
07.02.2016 03:50 8,9 C 8,8 C 36 % 1010,6 hPa 0,0 mm 2,6 km/h (1 Bft) NW 315 -5,3 C 5,7 km/h (1 Bft)
07.02.2016 03:55 8,4 C 8,4 C 37 % 1010,6 hPa 0,0 mm 2,6 km/h (1 Bft) S-SO 157 -5,4 C 0,0 km/h (0 Bft)
07.02.2016 04:00 8,9 C 8,7 C 37 % 1010,6 hPa 0,0 mm 2,1 km/h (1 Bft) S-SW 202 -5,0 C 2,6 km/h (1 Bft)
07.02.2016 04:05 8,6 C 8,5 C 37 % 1010,5 hPa 0,0 mm 2,8 km/h (1 Bft) N-NW 337 -5,2 C 9,3 km/h (2 Bft)
07.02.2016 04:10 8,8 C 8,6 C 38 % 1010,5 hPa 0,0 mm 3,4 km/h (1 Bft) SW 225 -4,7 C 7,3 km/h (2 Bft)
07.02.2016 04:15 8,9 C 8,6 C 38 % 1010,5 hPa 0,0 mm 2,3 km/h (1 Bft) S 180 -4,6 C 0,0 km/h (0 Bft)
07.02.2016 04:20 8,6 C 8,4 C 38 % 1010,5 hPa 0,0 mm 1,3 km/h (1 Bft) O-SO 112 -4,9 C 0,0 km/h (0 Bft)
07.02.2016 04:25 8,4 C 8,1 C 39 % 1010,5 hPa 0,0 mm 1,3 km/h (1 Bft) SO 135 -4,7 C 0,0 km/h (0 Bft)
07.02.2016 04:30 8,6 C 8,3 C 39 % 1010,5 hPa 0,0 mm 1,3 km/h (1 Bft) SO 135 -4,6 C 0,0 km/h (0 Bft)
07.02.2016 04:35 8,8 C 8,4 C 38 % 1010,5 hPa 0,0 mm 1,6 km/h (1 Bft) O-SO 112 -4,7 C 4,7 km/h (1 Bft)
07.02.2016 04:40 8,3 C 8,1 C 39 % 1010,5 hPa 0,0 mm 1,3 km/h (1 Bft) SO 135 -4,8 C 0,0 km/h (0 Bft)
07.02.2016 04:45 8,0 C 7,9 C 40 % 1010,2 hPa 0,0 mm 2,6 km/h (1 Bft) W-SW 247 -4,8 C 4,9 km/h (1 Bft)
07.02.2016 04:50 8,6 C 8,4 C 39 % 1010,2 hPa 0,0 mm 3,9 km/h (1 Bft) S-SO 157 -4,6 C 3,6 km/h (1 Bft)
07.02.2016 04:54 8,9 C 8,7 C 39 % 1010,2 hPa 0,0 mm 5,4 km/h (1 Bft) W 270 -4,3 C 4,7 km/h (1 Bft)
07.02.2016 04:56 8,9 C 8,7 C 39 % 1010,2 hPa 0,0 mm 5,4 km/h (1 Bft) W 270 -4,3 C 4,7 km/h (1 Bft)
07.02.2016 05:00 8,3 C 8,2 C 39 % 1010,2 hPa 0,0 mm 3,6 km/h (1 Bft) SO 135 -4,8 C 0,0 km/h (0 Bft)
07.02.2016 05:05 8,7 C 8,4 C 39 % 1010,1 hPa 0,0 mm 1,6 km/h (1 Bft) S 180 -4,5 C 4,7 km/h (1 Bft)
07.02.2016 05:10 8,6 C 8,4 C 39 % 1010,1 hPa 0,0 mm 2,6 km/h (1 Bft) O-SO 112 -4,6 C 4,4 km/h (1 Bft)
07.02.2016 05:15 8,5 C 8,3 C 40 % 1010,1 hPa 0,0 mm 2,6 km/h (1 Bft) S 180 -4,3 C 5,7 km/h (1 Bft)
07.02.2016 05:20 8,8 C 8,6 C 39 % 1010,1 hPa 0,0 mm 4,7 km/h (1 Bft) W 270 -4,4 C 9,1 km/h (2 Bft)
07.02.2016 05:25 9,2 C 8,8 C 38 % 1010,2 hPa 0,0 mm 7,5 km/h (2 Bft) W-SW 247 -4,4 C 11,4 km/h (2 Bft)
07.02.2016 05:30 9,1 C 8,8 C 37 % 1010,2 hPa 0,0 mm 8,5 km/h (2 Bft) SO 135 -4,8 C 4,1 km/h (1 Bft)
07.02.2016 05:35 8,6 C 8,6 C 38 % 1010,2 hPa 0,0 mm 6,0 km/h (2 Bft) SW 225 -4,9 C 15,3 km/h (3 Bft)
07.02.2016 05:40 8,9 C 8,8 C 38 % 1010,2 hPa 0,0 mm 6,0 km/h (2 Bft) W 270 -4,6 C 15,0 km/h (3 Bft)
07.02.2016 05:45 9,3 C 8,9 C 37 % 1010,2 hPa 0,0 mm 9,1 km/h (2 Bft) S 180 -4,6 C 9,6 km/h (2 Bft)
07.02.2016 05:50 9,3 C 9,1 C 37 % 1010,2 hPa 0,0 mm 9,1 km/h (2 Bft) S 180 -4,6 C 12,4 km/h (3 Bft)
07.02.2016 05:55 9,4 C 9,1 C 37 % 1010,2 hPa 0,0 mm 9,6 km/h (2 Bft) W-SW 247 -4,5 C 7,3 km/h (2 Bft)
07.02.2016 06:00 8,5 C 8,8 C 38 % 1010,2 hPa 0,0 mm 6,0 km/h (2 Bft) O-SO 112 -5,0 C 0,0 km/h (0 Bft)
07.02.2016 06:05 8,4 C 8,6 C 38 % 1010,2 hPa 0,0 mm 5,4 km/h (1 Bft) N-NO 22 -5,1 C 3,9 km/h (1 Bft)
07.02.2016 06:10 8,2 C 8,1 C 39 % 1010,2 hPa 0,0 mm 1,8 km/h (1 Bft) W 270 -4,9 C 0,0 km/h (0 Bft)
07.02.2016 06:15 8,4 C 8,2 C 40 % 1010,2 hPa 0,0 mm 1,6 km/h (1 Bft) W-NW 292 -4,4 C 3,9 km/h (1 Bft)
07.02.2016 06:20 8,3 C 8,2 C 40 % 1010,2 hPa 0,0 mm 2,8 km/h (1 Bft) W-SW 247 -4,5 C 7,0 km/h (2 Bft)
07.02.2016 06:25 8,6 C 8,5 C 40 % 1010,2 hPa 0,0 mm 3,6 km/h (1 Bft) S-SO 157 -4,2 C 0,0 km/h (0 Bft)
07.02.2016 06:30 8,9 C 8,7 C 39 % 1010,2 hPa 0,0 mm 4,7 km/h (1 Bft) S 180 -4,3 C 6,2 km/h (2 Bft)
07.02.2016 06:35 8,7 C 8,6 C 39 % 1010,2 hPa 0,0 mm 4,4 km/h (1 Bft) S-SW 202 -4,5 C 7,3 km/h (2 Bft)
07.02.2016 06:40 9,0 C 8,9 C 39 % 1010,2 hPa 0,0 mm 4,9 km/h (1 Bft) W-SW 247 -4,2 C 7,8 km/h (2 Bft)
07.02.2016 06:45 8,9 C 8,9 C 39 % 1009,9 hPa 0,0 mm 6,0 km/h (2 Bft) SO 135 -4,3 C 6,0 km/h (2 Bft)
07.02.2016 06:50 8,6 C 8,6 C 39 % 1009,9 hPa 0,0 mm 3,4 km/h (1 Bft) S-SW 202 -4,6 C 0,0 km/h (0 Bft)
07.02.2016 06:55 8,3 C 8,3 C 40 % 1009,9 hPa 0,0 mm 1,8 km/h (1 Bft) S-SW 202 -4,5 C 2,8 km/h (1 Bft)
07.02.2016 07:00 8,1 C 8,1 C 40 % 1009,9 hPa 0,0 mm 1,6 km/h (1 Bft) SO 135 -4,7 C 0,0 km/h (0 Bft)
07.02.2016 07:05 7,8 C 7,7 C 40 % 1010,1 hPa 0,0 mm 1,3 km/h (1 Bft) SO 135 -4,9 C 0,0 km/h (0 Bft)
07.02.2016 07:10 7,9 C 7,8 C 41 % 1010,1 hPa 0,0 mm 1,6 km/h (1 Bft) W 270 -4,5 C 4,1 km/h (1 Bft)
07.02.2016 07:15 7,8 C 7,7 C 41 % 1010,1 hPa 0,0 mm 2,1 km/h (1 Bft) S-SO 157 -4,6 C 0,0 km/h (0 Bft)
07.02.2016 07:20 7,3 C 7,3 C 42 % 1010,1 hPa 0,0 mm 1,3 km/h (1 Bft) O 90 -4,7 C 0,0 km/h (0 Bft)
07.02.2016 07:25 7,3 C 7,3 C 43 % 1010,2 hPa 0,0 mm 0,5 km/h (0 Bft) SO 135 -4,4 C 0,0 km/h (0 Bft)
07.02.2016 07:30 7,4 C 7,4 C 44 % 1010,2 hPa 0,0 mm 0,5 km/h (0 Bft) O-NO 67 -4,0 C 0,0 km/h (0 Bft)
07.02.2016 07:35 7,8 C 7,7 C 45 % 1010,2 hPa 0,0 mm 0,8 km/h (0 Bft) W 270 -3,4 C 3,1 km/h (1 Bft)
07.02.2016 07:40 8,1 C 8,0 C 44 % 1010,2 hPa 0,0 mm 3,1 km/h (1 Bft) O-SO 112 -3,4 C 0,0 km/h (0 Bft)
07.02.2016 07:45 8,3 C 8,3 C 44 % 1009,6 hPa 0,0 mm 3,9 km/h (1 Bft) SO 135 -3,2 C 4,4 km/h (1 Bft)
07.02.2016 07:50 8,9 C 8,9 C 43 % 1009,6 hPa 0,0 mm 4,7 km/h (1 Bft) O-NO 67 -3,0 C 0,0 km/h (0 Bft)
07.02.2016 07:55 9,0 C 9,3 C 42 % 1009,6 hPa 0,0 mm 6,0 km/h (2 Bft) S-SO 157 -3,2 C 9,8 km/h (2 Bft)
07.02.2016 08:00 9,3 C 9,7 C 42 % 1009,6 hPa 0,0 mm 4,7 km/h (1 Bft) O-SO 112 -2,9 C 0,0 km/h (0 Bft)
07.02.2016 08:05 8,6 C 9,7 C 43 % 1009,5 hPa 0,0 mm 4,9 km/h (1 Bft) O-SO 112 -3,3 C 17,1 km/h (3 Bft)
07.02.2016 08:10 9,9 C 10,1 C 41 % 1009,5 hPa 0,0 mm 4,9 km/h (1 Bft) N 360 -2,7 C 3,4 km/h (1 Bft)
07.02.2016 08:15 9,3 C 10,1 C 41 % 1009,5 hPa 0,0 mm 3,9 km/h (1 Bft) W 270 -3,3 C 0,0 km/h (0 Bft)
07.02.2016 08:20 9,5 C 10,0 C 41 % 1009,5 hPa 0,0 mm 2,6 km/h (1 Bft) SW 225 -3,1 C 19,7 km/h (3 Bft)
07.02.2016 08:25 10,2 C 10,3 C 40 % 1009,2 hPa 0,0 mm 5,4 km/h (1 Bft) NW 315 -2,8 C 5,2 km/h (1 Bft)
07.02.2016 08:30 10,7 C 10,5 C 39 % 1009,2 hPa 0,0 mm 10,9 km/h (2 Bft) O 90 -2,7 C 3,6 km/h (1 Bft)
07.02.2016 08:35 10,8 C 10,7 C 38 % 1009,2 hPa 0,0 mm 10,1 km/h (2 Bft) NW 315 -2,9 C 49,7 km/h (6 Bft)
07.02.2016 08:40 11,3 C 11,1 C 37 % 1009,2 hPa 0,0 mm 11,9 km/h (2 Bft) SW 225 -2,8 C 29,5 km/h (5 Bft)
07.02.2016 08:45 11,1 C 11,1 C 37 % 1009,0 hPa 0,0 mm 13,5 km/h (3 Bft) S-SW 202 -3,0 C 38,6 km/h (5 Bft)
07.02.2016 08:50 10,9 C 11,2 C 38 % 1009,0 hPa 0,0 mm 9,8 km/h (2 Bft) NO 45 -2,8 C 8,5 km/h (2 Bft)
07.02.2016 08:55 10,8 C 11,4 C 38 % 1009,0 hPa 0,0 mm 7,8 km/h (2 Bft) W 270 -2,9 C 38,1 km/h (5 Bft)
07.02.2016 09:00 10,8 C 11,3 C 38 % 1009,0 hPa 0,0 mm 8,3 km/h (2 Bft) W 270 -2,9 C 13,5 km/h (3 Bft)
07.02.2016 09:05 10,7 C 11,2 C 38 % 1008,9 hPa 0,0 mm 8,5 km/h (2 Bft) W-NW 292 -3,0 C 8,8 km/h (2 Bft)
07.02.2016 09:10 10,9 C 11,5 C 38 % 1008,9 hPa 0,0 mm 7,3 km/h (2 Bft) S-SO 157 -2,8 C 3,9 km/h (1 Bft)
07.02.2016 09:15 10,8 C 11,5 C 39 % 1008,9 hPa 0,0 mm 5,7 km/h (1 Bft) N-NO 22 -2,6 C 3,4 km/h (1 Bft)
07.02.2016 09:20 10,6 C 11,4 C 38 % 1008,9 hPa 0,0 mm 5,7 km/h (1 Bft) O-NO 67 -3,1 C 7,0 km/h (2 Bft)
07.02.2016 09:25 10,4 C 11,3 C 39 % 1009,0 hPa 0,0 mm 5,7 km/h (1 Bft) O-NO 67 -2,9 C 11,9 km/h (2 Bft)
07.02.2016 09:30 10,3 C 11,0 C 40 % 1009,0 hPa 0,0 mm 4,9 km/h (1 Bft) N-NO 22 -2,7 C 6,0 km/h (2 Bft)
07.02.2016 09:35 10,2 C 10,9 C 40 % 1009,0 hPa 0,0 mm 6,2 km/h (2 Bft) O-NO 67 -2,8 C 6,5 km/h (2 Bft)
07.02.2016 09:40 10,1 C 10,8 C 41 % 1009,0 hPa 0,0 mm 5,2 km/h (1 Bft) NW 315 -2,5 C 11,7 km/h (2 Bft)
07.02.2016 09:45 10,2 C 10,8 C 41 % 1008,9 hPa 0,0 mm 4,4 km/h (1 Bft) O-SO 112 -2,5 C 6,0 km/h (2 Bft)
07.02.2016 09:50 10,1 C 10,8 C 42 % 1008,9 hPa 0,0 mm 3,9 km/h (1 Bft) NW 315 -2,2 C 5,4 km/h (1 Bft)
07.02.2016 09:55 10,0 C 10,7 C 43 % 1008,9 hPa 0,0 mm 3,1 km/h (1 Bft) NO 45 -2,0 C 5,4 km/h (1 Bft)
07.02.2016 10:00 9,8 C 10,5 C 43 % 1008,9 hPa 0,0 mm 1,8 km/h (1 Bft) NO 45 -2,2 C 3,4 km/h (1 Bft)
07.02.2016 10:05 9,9 C 10,5 C 43 % 1008,9 hPa 0,0 mm 2,1 km/h (1 Bft) N-NO 22 -2,1 C 7,5 km/h (2 Bft)
07.02.2016 10:10 9,9 C 10,5 C 43 % 1008,9 hPa 0,0 mm 2,8 km/h (1 Bft) N 360 -2,1 C 0,0 km/h (0 Bft)
07.02.2016 10:15 9,7 C 10,4 C 43 % 1008,9 hPa 0,0 mm 3,6 km/h (1 Bft) NW 315 -2,3 C 7,3 km/h (2 Bft)
07.02.2016 10:20 9,7 C 10,4 C 43 % 1008,9 hPa 0,0 mm 3,4 km/h (1 Bft) N 360 -2,3 C 5,2 km/h (1 Bft)
07.02.2016 10:25 9,8 C 10,3 C 43 % 1009,1 hPa 0,0 mm 3,1 km/h (1 Bft) NO 45 -2,2 C 3,9 km/h (1 Bft)
07.02.2016 10:30 9,7 C 10,2 C 44 % 1009,1 hPa 0,0 mm 3,9 km/h (1 Bft) O 90 -2,0 C 6,0 km/h (2 Bft)
07.02.2016 10:35 9,8 C 10,1 C 43 % 1009,1 hPa 0,0 mm 5,2 km/h (1 Bft) O-SO 112 -2,2 C 4,7 km/h (1 Bft)
07.02.2016 10:40 9,4 C 10,0 C 43 % 1009,1 hPa 0,0 mm 5,4 km/h (1 Bft) O-NO 67 -2,5 C 5,2 km/h (1 Bft)
07.02.2016 10:45 9,1 C 9,8 C 44 % 1009,0 hPa 0,0 mm 4,7 km/h (1 Bft) O-NO 67 -2,5 C 11,7 km/h (2 Bft)
07.02.2016 10:50 9,5 C 9,7 C 43 % 1009,0 hPa 0,0 mm 6,2 km/h (2 Bft) NO 45 -2,4 C 3,4 km/h (1 Bft)
07.02.2016 10:55 9,4 C 9,6 C 43 % 1009,0 hPa 0,0 mm 7,3 km/h (2 Bft) O-NO 67 -2,5 C 7,8 km/h (2 Bft)
07.02.2016 10:57 9,4 C 9,6 C 43 % 1009,0 hPa 0,0 mm 7,3 km/h (2 Bft) O-NO 67 -2,5 C 7,8 km/h (2 Bft)
07.02.2016 11:00 9,3 C 9,3 C 43 % 1009,0 hPa 0,0 mm 8,3 km/h (2 Bft) O-NO 67 -2,6 C 13,7 km/h (3 Bft)
07.02.2016 11:05 9,0 C 9,2 C 44 % 1008,7 hPa 0,0 mm 7,8 km/h (2 Bft) O 90 -2,6 C 9,6 km/h (2 Bft)
07.02.2016 11:10 9,0 C 9,4 C 45 % 1008,7 hPa 0,0 mm 6,2 km/h (2 Bft) NO 45 -2,3 C 12,7 km/h (3 Bft)
07.02.2016 11:15 9,3 C 9,4 C 44 % 1008,7 hPa 0,0 mm 7,5 km/h (2 Bft) NO 45 -2,3 C 8,3 km/h (2 Bft)
07.02.2016 11:20 9,2 C 9,7 C 45 % 1008,7 hPa 0,0 mm 4,9 km/h (1 Bft) O-NO 67 -2,1 C 2,8 km/h (1 Bft)
07.02.2016 11:25 9,1 C 9,7 C 46 % 1008,9 hPa 0,0 mm 3,1 km/h (1 Bft) O-SO 112 -1,9 C 0,0 km/h (0 Bft)
07.02.2016 11:30 9,2 C 9,7 C 46 % 1008,9 hPa 0,0 mm 1,6 km/h (1 Bft) N-NO 22 -1,8 C 0,0 km/h (0 Bft)
07.02.2016 11:35 9,5 C 9,9 C 45 % 1008,9 hPa 0,0 mm 2,1 km/h (1 Bft) SW 225 -1,8 C 0,0 km/h (0 Bft)
07.02.2016 11:40 9,4 C 10,0 C 46 % 1008,9 hPa 0,0 mm 3,6 km/h (1 Bft) O 90 -1,6 C 4,1 km/h (1 Bft)
07.02.2016 11:45 9,3 C 10,0 C 47 % 1008,8 hPa 0,0 mm 2,8 km/h (1 Bft) O 90 -1,4 C 3,4 km/h (1 Bft)
07.02.2016 11:50 9,5 C 10,1 C 47 % 1008,8 hPa 0,0 mm 4,4 km/h (1 Bft) O-NO 67 -1,2 C 8,3 km/h (2 Bft)
07.02.2016 11:55 9,7 C 10,1 C 46 % 1008,8 hPa 0,0 mm 4,9 km/h (1 Bft) N-NO 22 -1,3 C 0,0 km/h (0 Bft)
07.02.2016 12:00 9,5 C 10,2 C 47 % 1008,8 hPa 0,0 mm 2,8 km/h (1 Bft) O-NO 67 -1,2 C 3,9 km/h (1 Bft)
07.02.2016 12:05 9,6 C 10,3 C 48 % 1008,4 hPa 0,0 mm 2,6 km/h (1 Bft) O-NO 67 -0,9 C 9,3 km/h (2 Bft)
07.02.2016 12:10 9,7 C 10,4 C 48 % 1008,4 hPa 0,0 mm 4,9 km/h (1 Bft) O-NO 67 -0,8 C 8,3 km/h (2 Bft)
07.02.2016 12:15 9,9 C 10,5 C 47 % 1008,4 hPa 0,0 mm 4,7 km/h (1 Bft) O-NO 67 -0,9 C 7,8 km/h (2 Bft)
07.02.2016 12:20 10,0 C 10,7 C 46 % 1008,4 hPa 0,0 mm 4,1 km/h (1 Bft) O-SO 112 -1,1 C 3,9 km/h (1 Bft)
07.02.2016 12:25 10,1 C 10,8 C 47 % 1008,2 hPa 0,0 mm 3,6 km/h (1 Bft) SO 135 -0,7 C 3,6 km/h (1 Bft)
07.02.2016 12:30 10,2 C 10,9 C 47 % 1008,2 hPa 0,0 mm 1,8 km/h (1 Bft) O-NO 67 -0,6 C 0,0 km/h (0 Bft)
07.02.2016 12:35 10,2 C 11,1 C 47 % 1008,2 hPa 0,0 mm 0,8 km/h (0 Bft) W 270 -0,6 C 2,6 km/h (1 Bft)
07.02.2016 12:40 10,5 C 11,3 C 47 % 1008,2 hPa 0,0 mm 0,8 km/h (0 Bft) O 90 -0,3 C 0,0 km/h (0 Bft)
07.02.2016 12:45 10,5 C 11,4 C 47 % 1008,1 hPa 0,0 mm 0,5 km/h (0 Bft) N-NO 22 -0,3 C 0,0 km/h (0 Bft)
07.02.2016 12:50 10,8 C 11,6 C 46 % 1008,1 hPa 0,0 mm 1,8 km/h (1 Bft) O-NO 67 -0,3 C 3,1 km/h (1 Bft)
07.02.2016 12:55 10,7 C 11,7 C 46 % 1008,1 hPa 0,0 mm 2,8 km/h (1 Bft) W-SW 247 -0,4 C 11,9 km/h (2 Bft)
07.02.2016 13:00 10,9 C 11,8 C 46 % 1008,1 hPa 0,0 mm 3,9 km/h (1 Bft) O-NO 67 -0,3 C 7,5 km/h (2 Bft)
07.02.2016 13:05 10,8 C 11,9 C 47 % 1008,4 hPa 0,0 mm 3,6 km/h (1 Bft) SO 135 -0,1 C 0,0 km/h (0 Bft)
07.02.2016 13:10 11,0 C 12,0 C 47 % 1008,4 hPa 0,0 mm 2,1 km/h (1 Bft) O-NO 67 0,1 C 3,6 km/h (1 Bft)
07.02.2016 13:15 11,0 C 12,1 C 46 % 1008,4 hPa 0,0 mm 2,1 km/h (1 Bft) O-SO 112 -0,2 C 3,6 km/h (1 Bft)
07.02.2016 13:20 11,3 C 12,4 C 45 % 1008,4 hPa 0,0 mm 4,1 km/h (1 Bft) O-NO 67 -0,2 C 3,6 km/h (1 Bft)
07.02.2016 13:25 11,5 C 12,7 C 45 % 1008,2 hPa 0,0 mm 5,4 km/h (1 Bft) NO 45 -0,0 C 10,4 km/h (2 Bft)
07.02.2016 13:30 11,9 C 13,2 C 44 % 1008,2 hPa 0,0 mm 4,7 km/h (1 Bft) W-NW 292 0,0 C 0,0 km/h (0 Bft)
07.02.2016 13:35 12,0 C 13,6 C 44 % 1008,2 hPa 0,0 mm 3,6 km/h (1 Bft) O 90 0,1 C 3,6 km/h (1 Bft)
07.02.2016 13:40 12,2 C 14,3 C 43 % 1008,2 hPa 0,0 mm 1,8 km/h (1 Bft) N-NO 22 -0,0 C 4,7 km/h (1 Bft)
07.02.2016 13:45 12,3 C 14,4 C 43 % 1008,4 hPa 0,0 mm 2,3 km/h (1 Bft) S 180 0,1 C 6,7 km/h (2 Bft)
07.02.2016 13:50 12,3 C 14,2 C 42 % 1008,4 hPa 0,0 mm 2,3 km/h (1 Bft) W-SW 247 -0,2 C 3,1 km/h (1 Bft)
07.02.2016 13:55 12,3 C 14,0 C 42 % 1008,4 hPa 0,0 mm 2,3 km/h (1 Bft) NW 315 -0,2 C 2,6 km/h (1 Bft)
07.02.2016 14:00 12,1 C 13,6 C 43 % 1008,4 hPa 0,0 mm 1,8 km/h (1 Bft) NO 45 -0,1 C 0,0 km/h (0 Bft)
07.02.2016 14:05 11,9 C 13,4 C 44 % 1008,4 hPa 0,0 mm 1,3 km/h (1 Bft) O-NO 67 0,0 C 0,0 km/h (0 Bft)
07.02.2016 14:10 11,8 C 13,0 C 44 % 1008,4 hPa 0,0 mm 0,8 km/h (0 Bft) NO 45 -0,0 C 4,1 km/h (1 Bft)
07.02.2016 14:15 11,7 C 12,8 C 44 % 1008,4 hPa 0,0 mm 0,5 km/h (0 Bft) W 270 -0,1 C 3,1 km/h (1 Bft)
07.02.2016 14:20 11,4 C 12,4 C 44 % 1008,4 hPa 0,0 mm 0,8 km/h (0 Bft) O 90 -0,4 C 0,0 km/h (0 Bft)
07.02.2016 14:25 11,3 C 12,2 C 45 % 1008,4 hPa 0,0 mm 0,5 km/h (0 Bft) O-SO 112 -0,2 C 0,0 km/h (0 Bft)
07.02.2016 14:30 11,2 C 12,0 C 45 % 1008,4 hPa 0,0 mm 0,0 km/h (0 Bft) N-NO 22 -0,3 C 0,0 km/h (0 Bft)
07.02.2016 14:35 11,3 C 11,9 C 45 % 1008,4 hPa 0,0 mm 0,8 km/h (0 Bft) NO 45 -0,2 C 0,0 km/h (0 Bft)
07.02.2016 14:40 11,2 C 11,8 C 45 % 1008,4 hPa 0,0 mm 1,6 km/h (1 Bft) NO 45 -0,3 C 3,1 km/h (1 Bft)
07.02.2016 14:45 11,0 C 11,7 C 46 % 1008,7 hPa 0,0 mm 0,8 km/h (0 Bft) NO 45 -0,2 C 0,0 km/h (0 Bft)
07.02.2016 14:50 11,1 C 11,7 C 46 % 1008,7 hPa 0,0 mm 0,3 km/h (0 Bft) O-NO 67 -0,1 C 0,0 km/h (0 Bft)
07.02.2016 14:55 11,1 C 11,7 C 46 % 1008,7 hPa 0,0 mm 0,3 km/h (0 Bft) NO 45 -0,1 C 3,1 km/h (1 Bft)
07.02.2016 15:00 11,1 C 11,7 C 46 % 1008,7 hPa 0,0 mm 0,8 km/h (0 Bft) S-SO 157 -0,1 C 0,0 km/h (0 Bft)
07.02.2016 15:05 11,0 C 11,7 C 46 % 1008,9 hPa 0,0 mm 0,8 km/h (0 Bft) O-SO 112 -0,2 C 0,0 km/h (0 Bft)
07.02.2016 15:10 11,1 C 11,6 C 45 % 1008,9 hPa 0,0 mm 0,8 km/h (0 Bft) SW 225 -0,4 C 6,7 km/h (2 Bft)
07.02.2016 15:15 11,3 C 11,7 C 45 % 1008,9 hPa 0,0 mm 3,1 km/h (1 Bft) W 270 -0,2 C 13,5 km/h (3 Bft)
07.02.2016 15:20 11,2 C 11,6 C 44 % 1008,9 hPa 0,0 mm 8,8 km/h (2 Bft) W-NW 292 -0,6 C 10,4 km/h (2 Bft)
07.02.2016 15:25 10,9 C 11,4 C 44 % 1010,0 hPa 0,0 mm 12,7 km/h (3 Bft) NW 315 -0,9 C 18,1 km/h (3 Bft)
07.02.2016 15:30 10,2 C 10,4 C 45 % 1010,0 hPa 0,0 mm 16,3 km/h (3 Bft) W 270 -1,2 C 16,8 km/h (3 Bft)
07.02.2016 15:35 9,9 C 9,8 C 46 % 1010,0 hPa 0,0 mm 15,8 km/h (3 Bft) W-SW 247 -1,2 C 17,6 km/h (3 Bft)
07.02.2016 15:40 9,4 C 9,3 C 46 % 1010,0 hPa 0,0 mm 15,5 km/h (3 Bft) S 180 -1,6 C 18,9 km/h (3 Bft)
07.02.2016 15:45 9,1 C 9,0 C 47 % 1010,8 hPa 0,0 mm 17,1 km/h (3 Bft) W 270 -1,6 C 19,4 km/h (3 Bft)
07.02.2016 15:50 8,9 C 8,7 C 48 % 1010,8 hPa 0,0 mm 13,7 km/h (3 Bft) W-NW 292 -1,5 C 9,3 km/h (2 Bft)
07.02.2016 15:55 8,7 C 8,5 C 49 % 1010,8 hPa 0,0 mm 12,4 km/h (3 Bft) W 270 -1,4 C 21,0 km/h (4 Bft)
07.02.2016 16:00 8,5 C 8,4 C 50 % 1010,8 hPa 0,0 mm 13,5 km/h (3 Bft) NW 315 -1,3 C 9,6 km/h (2 Bft)
07.02.2016 16:05 8,4 C 8,2 C 50 % 1011,1 hPa 0,0 mm 14,0 km/h (3 Bft) W-NW 292 -1,4 C 14,8 km/h (3 Bft)
07.02.2016 16:10 8,2 C 7,9 C 52 % 1011,1 hPa 0,0 mm 12,2 km/h (2 Bft) W 270 -1,1 C 16,6 km/h (3 Bft)
07.02.2016 16:15 7,9 C 7,6 C 54 % 1011,1 hPa 0,0 mm 12,2 km/h (2 Bft) W-NW 292 -0,8 C 26,7 km/h (4 Bft)
07.02.2016 16:20 7,6 C 7,4 C 56 % 1011,1 hPa 0,0 mm 14,0 km/h (3 Bft) O 90 -0,6 C 22,5 km/h (4 Bft)
07.02.2016 16:25 7,4 C 7,2 C 58 % 1011,9 hPa 0,0 mm 14,0 km/h (3 Bft) W-SW 247 -0,3 C 11,9 km/h (2 Bft)
07.02.2016 16:30 7,3 C 7,0 C 59 % 1011,9 hPa 0,0 mm 14,0 km/h (3 Bft) N-NW 337 -0,2 C 19,4 km/h (3 Bft)
07.02.2016 16:35 7,2 C 6,9 C 59 % 1011,9 hPa 0,0 mm 12,7 km/h (3 Bft) W 270 -0,3 C 9,3 km/h (2 Bft)
07.02.2016 16:40 7,0 C 6,6 C 60 % 1011,9 hPa 0,0 mm 11,4 km/h (2 Bft) NW 315 -0,2 C 9,3 km/h (2 Bft)
07.02.2016 16:45 6,8 C 6,5 C 60 % 1012,0 hPa 0,0 mm 10,1 km/h (2 Bft) W 270 -0,4 C 7,5 km/h (2 Bft)
07.02.2016 16:50 6,7 C 6,3 C 61 % 1012,0 hPa 0,0 mm 10,4 km/h (2 Bft) W-SW 247 -0,3 C 15,0 km/h (3 Bft)
07.02.2016 16:55 6,6 C 6,3 C 62 % 1012,0 hPa 0,0 mm 9,6 km/h (2 Bft) W 270 -0,1 C 8,3 km/h (2 Bft)
07.02.2016 16:58 6,6 C 6,3 C 62 % 1012,0 hPa 0,0 mm 9,6 km/h (2 Bft) W 270 -0,1 C 8,3 km/h (2 Bft)
07.02.2016 17:00 6,5 C 6,2 C 63 % 1012,0 hPa 0,0 mm 8,0 km/h (2 Bft) S-SW 202 -0,0 C 11,7 km/h (2 Bft)
07.02.2016 17:05 6,4 C 6,0 C 65 % 1012,7 hPa 0,0 mm 8,8 km/h (2 Bft) NW 315 0,3 C 15,3 km/h (3 Bft)
07.02.2016 17:10 6,3 C 5,8 C 66 % 1012,7 hPa 0,0 mm 9,8 km/h (2 Bft) W 270 0,4 C 12,4 km/h (3 Bft)
07.02.2016 17:15 6,2 C 5,8 C 67 % 1012,7 hPa 0,0 mm 9,3 km/h (2 Bft) W-NW 292 0,5 C 9,6 km/h (2 Bft)
07.02.2016 17:20 6,1 C 5,5 C 68 % 1012,7 hPa 0,0 mm 11,1 km/h (2 Bft) W 270 0,6 C 18,1 km/h (3 Bft)
07.02.2016 17:25 6,1 C 5,5 C 67 % 1012,5 hPa 0,0 mm 11,1 km/h (2 Bft) W 270 0,4 C 16,1 km/h (3 Bft)
07.02.2016 17:30 6,0 C 5,4 C 68 % 1012,5 hPa 0,0 mm 11,9 km/h (2 Bft) W-SW 247 0,6 C 8,8 km/h (2 Bft)
07.02.2016 17:35 5,9 C 5,4 C 68 % 1012,5 hPa 0,0 mm 10,4 km/h (2 Bft) W-SW 247 0,5 C 13,7 km/h (3 Bft)
07.02.2016 17:40 5,9 C 5,4 C 68 % 1012,5 hPa 0,0 mm 9,6 km/h (2 Bft) W 270 0,5 C 11,1 km/h (2 Bft)
07.02.2016 17:45 5,8 C 5,3 C 68 % 1012,7 hPa 0,0 mm 9,8 km/h (2 Bft) W-NW 292 0,4 C 11,7 km/h (2 Bft)
07.02.2016 17:50 5,7 C 5,3 C 68 % 1012,7 hPa 0,0 mm 9,1 km/h (2 Bft) S-SO 157 0,3 C 15,0 km/h (3 Bft)
07.02.2016 17:55 5,7 C 5,2 C 69 % 1012,7 hPa 0,0 mm 9,8 km/h (2 Bft) W 270 0,5 C 25,4 km/h (4 Bft)
07.02.2016 18:00 5,7 C 5,3 C 69 % 1012,7 hPa 0,0 mm 12,7 km/h (3 Bft) W-SW 247 0,5 C 11,9 km/h (2 Bft)
07.02.2016 18:05 5,7 C 5,0 C 69 % 1012,8 hPa 0,0 mm 13,2 km/h (3 Bft) S-SW 202 0,5 C 6,7 km/h (2 Bft)
07.02.2016 18:10 5,6 C 4,9 C 70 % 1012,8 hPa 0,0 mm 11,9 km/h (2 Bft) W 270 0,6 C 15,0 km/h (3 Bft)
07.02.2016 18:15 5,5 C 4,9 C 69 % 1012,8 hPa 0,0 mm 11,1 km/h (2 Bft) W-SW 247 0,3 C 12,2 km/h (2 Bft)
07.02.2016 18:20 5,4 C 4,9 C 70 % 1012,8 hPa 0,0 mm 10,4 km/h (2 Bft) W-SW 247 0,4 C 9,8 km/h (2 Bft)
07.02.2016 18:25 5,4 C 5,0 C 70 % 1013,0 hPa 0,0 mm 9,3 km/h (2 Bft) W-SW 247 0,4 C 4,9 km/h (1 Bft)
07.02.2016 18:30 5,3 C 4,8 C 70 % 1013,0 hPa 0,0 mm 10,1 km/h (2 Bft) NW 315 0,3 C 6,2 km/h (2 Bft)
07.02.2016 18:35 5,3 C 4,7 C 71 % 1013,0 hPa 0,0 mm 11,7 km/h (2 Bft) W-SW 247 0,5 C 19,7 km/h (3 Bft)
07.02.2016 18:40 5,2 C 4,5 C 70 % 1013,0 hPa 0,0 mm 12,2 km/h (2 Bft) W-SW 247 0,2 C 12,4 km/h (3 Bft)
07.02.2016 18:45 5,1 C 4,5 C 69 % 1013,4 hPa 0,0 mm 12,2 km/h (2 Bft) W 270 -0,1 C 12,4 km/h (3 Bft)
07.02.2016 18:50 4,9 C 4,5 C 70 % 1013,4 hPa 0,0 mm 13,5 km/h (3 Bft) N-NW 337 -0,1 C 13,7 km/h (3 Bft)
07.02.2016 18:55 4,8 C 4,3 C 71 % 1013,4 hPa 0,0 mm 16,1 km/h (3 Bft) O 90 -0,0 C 32,6 km/h (5 Bft)
07.02.2016 19:00 4,6 C 4,0 C 71 % 1013,4 hPa 0,0 mm 17,9 km/h (3 Bft) W-NW 292 -0,2 C 22,0 km/h (4 Bft)
07.02.2016 19:05 4,5 C 3,9 C 71 % 1013,6 hPa 0,0 mm 17,1 km/h (3 Bft) W-NW 292 -0,3 C 26,2 km/h (4 Bft)
07.02.2016 19:10 4,4 C 3,5 C 72 % 1013,6 hPa 0,0 mm 15,5 km/h (3 Bft) S 180 -0,2 C 18,9 km/h (3 Bft)
07.02.2016 19:15 4,3 C 3,7 C 73 % 1013,6 hPa 0,0 mm 16,3 km/h (3 Bft) W-NW 292 -0,1 C 30,0 km/h (5 Bft)
07.02.2016 19:20 4,2 C 3,5 C 73 % 1013,6 hPa 0,0 mm 16,3 km/h (3 Bft) W 270 -0,2 C 25,1 km/h (4 Bft)
07.02.2016 19:25 4,2 C 3,5 C 73 % 1014,0 hPa 0,0 mm 17,1 km/h (3 Bft) W 270 -0,2 C 19,9 km/h (4 Bft)
07.02.2016 19:30 4,1 C 3,1 C 74 % 1014,0 hPa 0,0 mm 15,8 km/h (3 Bft) W-NW 292 -0,1 C 27,7 km/h (4 Bft)
07.02.2016 19:35 4,0 C 3,3 C 75 % 1014,0 hPa 0,0 mm 16,1 km/h (3 Bft) W-NW 292 -0,0 C 25,4 km/h (4 Bft)
07.02.2016 19:40 3,9 C 3,1 C 76 % 1014,0 hPa 0,0 mm 15,5 km/h (3 Bft) W 270 0,1 C 5,7 km/h (1 Bft)
07.02.2016 19:45 3,8 C 3,0 C 76 % 1014,4 hPa 0,0 mm 13,5 km/h (3 Bft) W-SW 247 -0,0 C 18,1 km/h (3 Bft)
07.02.2016 19:50 3,7 C 2,8 C 76 % 1014,4 hPa 0,0 mm 11,4 km/h (2 Bft) W-NW 292 -0,1 C 15,5 km/h (3 Bft)
07.02.2016 19:55 3,6 C 2,7 C 76 % 1014,4 hPa 0,0 mm 11,1 km/h (2 Bft) W-NW 292 -0,2 C 6,7 km/h (2 Bft)
07.02.2016 20:00 3,5 C 2,7 C 76 % 1014,4 hPa 0,0 mm 8,5 km/h (2 Bft) W-NW 292 -0,3 C 9,6 km/h (2 Bft)
07.02.2016 20:05 3,5 C 2,8 C 76 % 1014,9 hPa 0,0 mm 7,8 km/h (2 Bft) S-SO 157 -0,3 C 11,4 km/h (2 Bft)
07.02.2016 20:10 3,4 C 2,6 C 77 % 1014,9 hPa 0,0 mm 8,8 km/h (2 Bft) W 270 -0,2 C 17,6 km/h (3 Bft)
07.02.2016 20:15 3,4 C 2,6 C 77 % 1014,9 hPa 0,0 mm 8,5 km/h (2 Bft) SW 225 -0,2 C 10,9 km/h (2 Bft)
07.02.2016 20:20 3,3 C 2,5 C 78 % 1014,9 hPa 0,0 mm 9,1 km/h (2 Bft) W-NW 292 -0,2 C 6,5 km/h (2 Bft)
07.02.2016 20:25 3,1 C 2,4 C 78 % 1015,2 hPa 0,0 mm 8,0 km/h (2 Bft) W-SW 247 -0,4 C 6,2 km/h (2 Bft)
07.02.2016 20:30 3,1 C 2,5 C 78 % 1015,2 hPa 0,0 mm 6,5 km/h (2 Bft) W 270 -0,4 C 9,8 km/h (2 Bft)
07.02.2016 20:35 3,0 C 2,4 C 78 % 1015,2 hPa 0,0 mm 6,5 km/h (2 Bft) W 270 -0,5 C 7,8 km/h (2 Bft)
07.02.2016 20:40 2,9 C 2,3 C 79 % 1015,2 hPa 0,0 mm 6,7 km/h (2 Bft) SW 225 -0,4 C 9,1 km/h (2 Bft)
07.02.2016 20:45 2,9 C 2,2 C 79 % 1015,5 hPa 0,0 mm 7,3 km/h (2 Bft) W 270 -0,4 C 7,3 km/h (2 Bft)
07.02.2016 20:50 2,7 C 2,0 C 80 % 1015,5 hPa 0,0 mm 7,8 km/h (2 Bft) W 270 -0,4 C 12,7 km/h (3 Bft)
07.02.2016 20:55 2,6 C 2,0 C 80 % 1015,5 hPa 0,0 mm 6,7 km/h (2 Bft) N-NW 337 -0,5 C 2,8 km/h (1 Bft)
07.02.2016 21:00 2,5 C 2,0 C 80 % 1015,5 hPa 0,0 mm 5,4 km/h (1 Bft) W-SW 247 -0,6 C 2,8 km/h (1 Bft)
07.02.2016 21:05 2,4 C 2,0 C 81 % 1015,5 hPa 0,0 mm 5,4 km/h (1 Bft) W 270 -0,5 C 5,7 km/h (1 Bft)
07.02.2016 21:10 2,3 C 1,9 C 81 % 1015,5 hPa 0,7 mm 5,2 km/h (1 Bft) W-SW 247 -0,6 C 3,1 km/h (1 Bft)
07.02.2016 21:15 2,4 C 1,9 C 82 % 1015,5 hPa 0,0 mm 6,0 km/h (2 Bft) W-SW 247 -0,4 C 9,3 km/h (2 Bft)
07.02.2016 21:20 2,4 C 1,6 C 83 % 1015,5 hPa 0,0 mm 8,0 km/h (2 Bft) S-SW 202 -0,2 C 7,8 km/h (2 Bft)
07.02.2016 21:25 2,4 C 1,6 C 83 % 1015,5 hPa 0,0 mm 8,0 km/h (2 Bft) NW 315 -0,2 C 2,6 km/h (1 Bft)
07.02.2016 21:30 2,4 C 1,9 C 83 % 1015,5 hPa 0,0 mm 5,7 km/h (1 Bft) SW 225 -0,2 C 6,7 km/h (2 Bft)
07.02.2016 21:35 2,4 C 1,9 C 83 % 1015,5 hPa 0,0 mm 5,4 km/h (1 Bft) W 270 -0,2 C 7,5 km/h (2 Bft)
07.02.2016 21:40 2,4 C 1,9 C 83 % 1015,5 hPa 0,0 mm 5,7 km/h (1 Bft) W-SW 247 -0,2 C 8,0 km/h (2 Bft)
07.02.2016 21:45 2,4 C 1,8 C 84 % 1015,9 hPa 0,0 mm 6,5 km/h (2 Bft) W-SW 247 -0,0 C 7,8 km/h (2 Bft)
07.02.2016 21:50 2,4 C 1,9 C 83 % 1015,9 hPa 0,0 mm 6,0 km/h (2 Bft) W-SW 247 -0,2 C 5,2 km/h (1 Bft)
07.02.2016 21:55 2,4 C 1,9 C 84 % 1015,9 hPa 0,0 mm 5,4 km/h (1 Bft) W-SW 247 -0,0 C 4,9 km/h (1 Bft)
07.02.2016 22:00 2,3 C 1,8 C 84 % 1015,9 hPa 0,0 mm 5,4 km/h (1 Bft) W-SW 247 -0,1 C 11,9 km/h (2 Bft)
07.02.2016 22:05 2,3 C 1,8 C 84 % 1016,0 hPa 0,0 mm 5,4 km/h (1 Bft) W-SW 247 -0,1 C 7,3 km/h (2 Bft)
07.02.2016 22:10 2,3 C 1,8 C 84 % 1016,0 hPa 0,0 mm 6,0 km/h (2 Bft) W 270 -0,1 C 8,8 km/h (2 Bft)
07.02.2016 22:15 2,2 C 1,7 C 84 % 1016,0 hPa 0,0 mm 5,4 km/h (1 Bft) W-NW 292 -0,2 C 3,1 km/h (1 Bft)
07.02.2016 22:20 2,1 C 1,8 C 84 % 1016,0 hPa 0,0 mm 4,7 km/h (1 Bft) W-SW 247 -0,3 C 8,0 km/h (2 Bft)
07.02.2016 22:25 2,1 C 1,8 C 84 % 1016,1 hPa 0,0 mm 4,7 km/h (1 Bft) W-SW 247 -0,3 C 4,7 km/h (1 Bft)
07.02.2016 22:30 2,1 C 1,8 C 84 % 1016,1 hPa 0,0 mm 3,9 km/h (1 Bft) W-NW 292 -0,3 C 3,6 km/h (1 Bft)
07.02.2016 22:35 2,0 C 1,8 C 84 % 1016,1 hPa 0,0 mm 1,8 km/h (1 Bft) W-NW 292 -0,4 C 0,0 km/h (0 Bft)
07.02.2016 22:40 2,0 C 1,8 C 84 % 1016,1 hPa 0,0 mm 1,3 km/h (1 Bft) W 270 -0,4 C 0,0 km/h (0 Bft)
07.02.2016 22:45 2,0 C 1,8 C 84 % 1016,2 hPa 0,0 mm 1,0 km/h (0 Bft) W-SW 247 -0,4 C 0,0 km/h (0 Bft)
07.02.2016 22:50 1,9 C 1,7 C 84 % 1016,2 hPa 0,7 mm 0,3 km/h (0 Bft) W-SW 247 -0,5 C 2,6 km/h (1 Bft)
07.02.2016 22:55 1,8 C 1,6 C 84 % 1016,2 hPa 0,0 mm 0,0 km/h (0 Bft) W-NW 292 -0,6 C 0,0 km/h (0 Bft)
07.02.2016 22:59 1,8 C 1,6 C 84 % 1016,2 hPa 0,0 mm 0,0 km/h (0 Bft) W-NW 292 -0,6 C 0,0 km/h (0 Bft)
07.02.2016 23:00 1,9 C 1,6 C 84 % 1016,2 hPa 0,0 mm 1,0 km/h (0 Bft) W-NW 292 -0,5 C 3,6 km/h (1 Bft)
07.02.2016 23:05 1,9 C 1,6 C 84 % 1016,5 hPa 0,0 mm 2,8 km/h (1 Bft) W 270 -0,5 C 13,7 km/h (3 Bft)
07.02.2016 23:10 1,8 C 1,2 C 85 % 1016,5 hPa 0,0 mm 6,7 km/h (2 Bft) W 270 -0,4 C 7,0 km/h (2 Bft)
07.02.2016 23:15 1,7 C 1,2 C 85 % 1016,5 hPa 0,0 mm 6,2 km/h (2 Bft) W-NW 292 -0,5 C 3,6 km/h (1 Bft)
07.02.2016 23:20 1,6 C 1,3 C 86 % 1016,5 hPa 0,0 mm 4,7 km/h (1 Bft) W 270 -0,5 C 7,0 km/h (2 Bft)
07.02.2016 23:25 1,6 C 1,1 C 86 % 1016,7 hPa 0,0 mm 6,2 km/h (2 Bft) W-SW 247 -0,5 C 7,5 km/h (2 Bft)
07.02.2016 23:30 1,6 C 1,0 C 86 % 1016,7 hPa 0,0 mm 6,7 km/h (2 Bft) SW 225 -0,5 C 12,2 km/h (2 Bft)
07.02.2016 23:35 1,6 C 1,0 C 86 % 1016,7 hPa 0,0 mm 7,3 km/h (2 Bft) W-SW 247 -0,5 C 7,3 km/h (2 Bft)
07.02.2016 23:40 1,6 C 0,9 C 87 % 1016,7 hPa 0,7 mm 8,0 km/h (2 Bft) W-SW 247 -0,3 C 12,2 km/h (2 Bft)
07.02.2016 23:45 1,7 C 0,8 C 87 % 1016,5 hPa 0,0 mm 10,1 km/h (2 Bft) W-SW 247 -0,2 C 7,3 km/h (2 Bft)
07.02.2016 23:50 1,7 C 0,9 C 87 % 1016,5 hPa 0,0 mm 13,5 km/h (3 Bft) W-SW 247 -0,2 C 22,8 km/h (4 Bft)
07.02.2016 23:55 1,9 C 0,7 C 88 % 1016,5 hPa 0,0 mm 13,7 km/h (3 Bft) W 270 0,1 C 15,0 km/h (3 Bft)
_ Min-Zeit 23:40 23:55 02:45 13:00 - 22:59 - - 02:45 22:59
Minimum _ 1,6 C 0,7 C 34 % 1008,1 hPa - 0,0 km/h (0 Bft) - - -5,6 C 0,0 km/h (0 Bft)
_ Max-Zeit 13:55 13:45 23:55 23:40 23:40 19:00 - - 17:20 08:35
Maximum _ 12,3 C 14,4 C 88 % 1016,7 hPa 0,7 mm 17,9 km/h
W-NW (3 Bft)
- - 0,6 C 49,7 km/h
NW (6 Bft)
Durchschnitt _ 7,8 C 7,8 C 52 % 1011,3 hPa #2,1 mm 6,4 km/h (2 Bft) W-SW - -2,0 C 8,5 km/h (2 Bft)